Date,TemperatureHighF,TemperatureAvgF,TemperatureLowF,DewpointHighF,DewpointAvgF,DewpointLowF,HumidityHigh,HumidityAvg,HumidityLow,PressureMaxIn,PressureMinIn,WindSpeedMaxMPH,WindSpeedAvgMPH,GustSpeedMaxMPH,PrecipitationSumIn
2013-1-1,42.8,38.1,30.2,28.6,26.6,22.8,75,63,56,29.82,29.72,5,2,8,0.00
2013-1-2,36.1,31.1,24.4,25.6,17.4,13.6,66,57,43,30.03,29.80,8,2,17,0.00
2013-1-3,38.5,27.9,19.2,18.3,15.8,12.3,77,61,40,30.05,29.94,6,1,6,0.00
2013-1-4,41.7,34.9,27.0,21.3,19.4,17.5,67,53,42,29.99,29.90,13,4,15,0.00
2013-1-5,43.5,35.7,31.3,25.4,21.0,18.5,67,55,43,30.16,29.93,8,2,11,0.00
2013-1-6,50.4,40.8,27.5,32.9,27.5,23.9,87,61,40,29.99,29.83,4,1,8,0.00
2013-1-7,45.1,38.0,24.4,28.7,24.6,18.9,79,59,44,30.23,29.94,8,2,11,0.00
2013-1-8,54.0,35.3,22.6,32.0,25.1,18.0,84,68,39,30.21,30.15,4,1,8,0.00
2013-1-9,50.5,38.4,25.9,38.7,30.9,21.7,85,75,50,30.18,30.03,7,1,11,0.01
2013-1-10,53.4,45.4,37.8,30.8,27.9,24.9,69,51,36,30.39,30.17,7,2,8,0.00
2013-1-11,44.8,39.3,32.0,39.6,33.1,26.6,91,79,61,30.30,29.91,5,1,6,0.07
2013-1-12,59.0,46.9,41.0,48.5,42.3,38.9,93,85,67,29.97,29.89,4,1,4,0.00
2013-1-13,52.0,46.5,42.1,50.6,44.7,39.4,96,93,89,29.94,29.86,4,1,4,0.01
2013-1-14,58.3,51.9,39.0,57.2,46.1,34.7,96,81,60,30.20,29.84,6,2,10,0.17
2013-1-15,39.4,37.6,33.6,36.4,34.8,31.3,91,89,86,30.22,30.04,4,2,5,0.46
2013-1-16,39.2,36.5,33.1,37.4,34.3,30.8,93,92,91,30.05,29.73,4,1,8,0.33
2013-1-17,43.3,39.6,36.1,37.9,31.1,26.7,93,72,56,30.02,29.86,8,1,11,0.00
2013-1-18,36.5,32.2,25.7,28.3,16.6,8.4,73,53,33,30.37,29.94,16,3,16,0.00
2013-1-19,54.7,40.6,30.6,27.5,24.3,18.1,69,53,34,30.29,29.84,9,4,11,0.00
2013-1-20,57.2,44.4,30.9,31.0,20.8,8.5,58,41,20,29.98,29.71,14,4,16,0.00
2013-1-21,41.7,31.9,26.8,22.2,16.4,9.9,58,52,43,29.98,29.69,10,2,19,0.00
2013-1-22,26.8,18.5,13.1,10.3,-2.8,-8.0,50,39,27,30.16,29.83,13,5,17,0.00
2013-1-23,24.4,17.4,7.3,4.7,-1.0,-3.2,72,45,31,30.22,30.01,9,2,15,0.00
2013-1-24,26.8,19.0,13.1,12.0,6.3,0.6,79,59,34,30.38,29.97,13,3,21,0.00
2013-1-25,22.8,17.7,13.1,15.0,6.0,-0.1,81,61,39,30.38,29.94,8,1,8,0.00
2013-1-26,33.1,25.3,19.6,19.9,17.1,14.2,81,71,56,30.31,29.96,7,1,8,0.05
2013-1-27,37.8,27.5,17.6,18.5,16.6,13.1,83,64,44,30.47,29.91,6,1,7,0.00
2013-1-28,45.3,34.8,26.8,40.5,30.3,18.5,91,84,66,29.92,29.48,6,2,9,0.09
2013-1-29,69.4,52.5,35.6,52.6,44.2,32.4,89,75,54,29.56,29.42,8,2,8,0.01
2013-1-30,70.5,60.8,56.5,60.3,55.1,49.7,92,82,70,29.42,28.67,14,4,20,1.38
2013-1-31,59.0,42.3,27.7,56.7,27.8,10.6,92,58,36,29.34,28.61,14,6,22,0.47
2013-2-1,29.7,25.3,18.0,22.2,9.8,2.9,82,52,38,29.80,29.25,15,5,21,0.00
2013-2-2,28.4,22.4,14.7,23.9,11.8,3.3,85,64,41,29.80,29.45,7,2,8,0.00
2013-2-3,33.4,29.1,22.6,27.2,23.5,19.1,87,79,68,29.45,29.26,8,2,9,0.01
2013-2-4,36.9,30.0,23.5,20.2,14.8,10.7,63,53,42,29.52,29.32,9,2,13,0.01
2013-2-5,39.6,34.0,29.7,28.0,24.3,19.5,76,67,61,29.37,29.28,4,1,5,0.00
2013-2-6,44.2,36.2,28.6,29.9,25.2,19.0,82,65,49,29.77,29.37,8,2,13,0.00
2013-2-7,37.9,32.0,24.4,27.5,22.4,17.9,78,68,57,29.87,29.64,9,2,12,0.00
2013-2-8,39.9,36.3,33.6,36.1,30.5,22.2,89,80,62,29.64,29.18,14,3,18,0.17
2013-2-9,40.3,32.4,26.2,22.2,17.1,13.9,63,53,39,29.82,29.35,17,5,21,0.00
2013-2-10,45.0,33.1,18.5,23.1,15.6,10.1,78,51,25,29.90,29.67,7,2,9,0.00
2013-2-11,53.6,44.7,34.7,49.2,40.2,23.1,93,85,53,29.67,29.14,11,3,14,0.27
2013-2-12,56.3,47.3,34.5,33.9,28.6,26.4,72,49,34,29.43,29.24,11,3,16,0.00
2013-2-13,46.4,34.9,27.9,32.3,28.3,22.8,90,78,55,29.40,29.10,7,1,7,0.08
2013-2-14,49.5,38.2,30.6,32.5,29.3,25.4,92,72,47,29.45,29.20,7,1,11,0.25
2013-2-15,59.2,42.8,30.4,36.3,32.3,25.7,89,70,36,29.47,29.33,8,2,14,0.12
2013-2-16,39.0,34.4,30.7,33.7,28.5,18.9,93,80,58,29.45,29.26,8,2,13,0.06
2013-2-17,30.7,26.7,26.4,18.8,16.8,16.6,66,66,62,29.59,29.26,11,1,11,0.00
2013-2-18,42.1,34.1,22.3,15.3,8.9,5.9,53,35,23,29.95,29.74,8,2,11,0.00
2013-2-19,44.1,38.8,33.6,38.7,28.1,15.3,87,67,43,29.74,29.30,12,4,12,0.15
2013-2-20,36.3,30.3,23.7,20.4,13.1,7.2,53,48,41,29.73,29.43,14,5,17,0.00
2013-2-21,38.5,28.8,22.5,15.7,12.5,8.7,59,50,38,29.91,29.69,14,4,14,0.00
2013-2-22,32.7,29.8,27.5,27.2,20.8,14.6,87,69,56,29.96,29.80,6,2,11,0.00
2013-2-23,47.1,37.8,30.4,43.5,35.1,27.2,92,90,87,29.80,29.40,4,1,4,0.02
2013-2-24,50.4,40.6,30.2,39.5,29.5,18.2,93,67,39,29.69,29.38,15,4,17,0.00
2013-2-25,47.5,35.9,25.5,24.7,21.2,17.3,72,56,39,29.80,29.69,6,2,8,0.00
2013-2-26,42.1,34.8,25.5,39.9,29.9,19.7,92,82,67,29.81,29.20,21,5,24,0.52
2013-2-27,55.0,45.7,38.5,40.7,35.9,31.4,93,71,48,29.28,29.11,8,2,11,0.05
2013-2-28,46.4,41.7,38.3,35.3,28.6,24.5,80,60,43,29.32,29.23,11,3,15,0.02
2013-3-1,43.2,39.3,32.5,29.9,26.9,21.4,70,61,50,29.47,29.30,11,3,11,0.00
2013-3-2,36.5,32.2,28.4,22.7,20.4,17.6,70,62,50,29.47,29.40,9,3,10,0.00
2013-3-3,40.6,32.4,27.9,21.1,18.5,15.8,68,57,41,29.49,29.38,12,4,14,0.00
2013-3-4,42.4,33.5,26.2,19.5,15.6,12.6,58,48,35,29.61,29.49,16,5,17,0.00
2013-3-5,50.2,39.0,27.9,27.1,18.0,8.6,65,45,19,29.66,29.41,8,3,10,0.00
2013-3-6,37.8,34.7,32.4,33.1,31.0,27.1,90,87,67,29.58,29.23,20,5,20,0.26
2013-3-7,49.1,40.9,35.1,29.9,27.0,25.3,76,59,42,29.73,29.58,16,4,16,0.00
2013-3-8,50.2,41.2,34.2,27.9,25.8,22.9,72,55,41,29.85,29.71,14,5,18,0.00
2013-3-9,61.9,45.3,30.9,25.6,22.7,19.8,64,43,21,29.93,29.83,5,2,9,0.00
2013-3-10,63.7,46.6,27.3,32.6,20.7,5.3,78,42,10,29.91,29.80,9,2,11,0.00
2013-3-11,59.7,50.2,40.6,47.1,41.7,26.5,87,73,51,29.83,29.52,11,4,11,0.00
2013-3-12,57.6,52.5,41.0,54.1,43.8,28.9,92,73,53,29.55,29.31,10,5,14,0.60
2013-3-13,49.5,40.9,30.0,30.2,23.6,17.1,78,52,29,29.65,29.48,13,4,14,0.00
2013-3-14,44.8,36.5,30.4,18.6,15.3,12.4,59,43,29,29.70,29.61,19,6,21,0.00
2013-3-15,55.9,43.3,26.4,31.8,22.1,16.3,69,45,28,29.67,29.37,8,3,14,0.00
2013-3-16,53.8,44.9,37.4,35.7,32.8,29.6,78,63,49,29.53,29.25,9,3,11,0.00
2013-3-17,40.8,37.2,33.4,30.8,26.7,22.3,83,66,51,29.85,29.50,9,3,11,0.00
2013-3-18,36.5,34.8,32.2,33.2,26.5,19.1,91,73,52,29.90,29.47,11,4,19,0.33
2013-3-19,58.8,45.3,34.7,40.7,26.4,4.1,92,57,15,29.50,29.30,11,4,17,0.01
2013-3-20,50.7,42.5,33.8,22.1,13.9,8.6,54,32,18,29.57,29.35,14,4,14,0.00
2013-3-21,37.2,32.6,26.8,25.5,13.6,6.2,80,46,31,29.47,29.34,12,5,16,0.00
2013-3-22,45.7,34.6,25.9,18.2,15.1,8.2,59,45,31,29.58,29.45,13,3,15,0.00
2013-3-23,52.2,39.2,25.5,23.9,20.5,16.8,71,49,30,29.61,29.50,9,3,11,0.00
2013-3-24,42.4,35.9,27.1,29.2,21.8,18.5,83,57,41,29.92,29.29,6,2,9,0.00
2013-3-25,38.8,34.5,32.2,33.6,30.7,28.8,90,86,81,29.92,29.75,6,1,8,0.25
2013-3-26,50.5,41.2,30.9,35.0,29.5,25.2,91,66,38,30.21,29.92,9,2,57,0.01
2013-3-27,48.7,42.2,37.6,30.5,26.9,22.9,66,55,38,30.34,30.21,13,4,15,0.00
2013-3-28,49.1,42.3,34.9,30.4,27.6,24.0,69,57,40,30.45,30.30,13,4,15,0.00
2013-3-29,56.5,45.2,36.9,32.0,26.8,23.8,64,50,32,30.48,30.37,9,2,12,0.00
2013-3-30,59.9,45.2,30.0,34.7,25.3,16.3,80,50,18,30.45,30.34,7,2,9,0.00
2013-3-31,51.4,45.2,36.9,47.9,37.6,26.4,90,75,58,30.36,29.98,4,1,7,0.05
2013-4-1,63.9,47.7,36.5,45.3,34.6,18.4,92,64,40,30.22,29.97,14,3,17,0.00
2013-4-2,48.7,38.6,28.0,20.6,15.7,11.3,63,41,24,30.40,30.22,11,3,13,0.00
2013-4-3,50.5,38.5,25.7,19.0,14.7,8.4,65,40,20,30.61,30.40,10,3,17,0.00
2013-4-4,48.7,37.8,21.4,31.7,15.8,11.0,78,44,22,30.63,30.32,7,2,9,0.00
2013-4-5,65.3,50.0,36.5,38.8,28.9,19.9,88,52,22,30.32,30.04,10,3,17,0.11
2013-4-6,57.0,46.3,34.5,23.3,19.0,13.8,53,35,19,30.56,30.28,12,3,12,0.00
2013-4-7,69.6,54.7,38.8,39.8,33.6,22.1,69,47,30,30.50,30.21,16,4,16,0.00
2013-4-8,80.2,67.5,49.3,49.7,44.4,39.3,71,45,27,30.31,30.18,7,2,10,0.00
2013-4-9,85.8,73.8,57.9,55.3,51.2,47.8,71,47,31,30.32,30.16,8,2,11,0.00
2013-4-10,91.6,77.6,60.8,57.0,52.9,49.8,68,44,27,30.21,30.01,7,2,10,0.00
2013-4-11,86.0,71.7,54.1,60.8,55.9,50.4,87,60,38,30.14,29.99,15,4,20,0.00
2013-4-12,71.4,57.0,50.5,62.4,53.5,48.3,95,89,72,30.07,29.83,11,4,15,0.24
2013-4-13,68.4,56.0,41.2,47.8,40.0,34.9,88,59,33,30.19,30.01,8,2,11,0.00
2013-4-14,66.7,55.1,40.1,39.8,36.4,32.8,80,52,30,30.38,30.19,12,2,13,0.00
2013-4-15,62.8,56.9,52.2,49.5,46.2,39.9,85,68,54,30.53,30.37,14,3,15,0.02
2013-4-16,74.8,63.4,53.6,57.9,52.8,46.1,81,69,53,30.55,30.34,10,3,10,0.00
2013-4-17,75.7,66.8,57.6,62.2,57.2,53.3,91,72,57,30.48,30.36,9,2,11,0.01
2013-4-18,77.9,63.9,56.8,64.3,57.0,51.6,93,79,55,30.47,30.24,8,3,13,0.20
2013-4-19,77.2,66.5,51.1,64.5,59.1,47.0,89,78,61,30.24,29.85,11,4,12,0.71
2013-4-20,59.4,51.7,44.6,47.7,30.7,25.6,88,46,28,30.57,30.04,11,3,11,0.02
2013-4-21,54.3,45.8,36.0,29.2,23.9,20.0,66,43,27,30.82,30.57,9,3,11,0.00
2013-4-22,55.4,45.7,32.2,35.9,32.7,27.7,85,62,45,30.81,30.63,11,4,13,0.00
2013-4-23,60.4,50.2,43.9,43.1,38.8,33.3,81,66,50,30.65,30.36,9,2,9,0.00
2013-4-24,77.2,60.7,41.2,56.2,48.0,37.3,91,66,40,30.36,30.02,8,3,14,0.00
2013-4-25,63.7,53.6,42.4,46.6,32.9,27.4,65,47,26,30.55,30.22,16,3,18,0.00
2013-4-26,64.9,52.8,37.9,40.8,33.8,28.3,84,52,26,30.69,30.54,9,1,9,0.00
2013-4-27,70.7,55.5,36.3,43.0,36.2,32.0,84,52,29,30.65,30.52,5,1,10,0.00
2013-4-28,67.3,55.1,39.9,48.9,40.6,35.0,84,60,32,30.53,30.38,5,1,8,0.01
2013-4-29,59.4,55.2,51.4,56.4,51.5,41.9,92,88,60,30.40,30.29,11,2,11,0.17
2013-4-30,59.9,56.0,50.5,55.8,53.1,47.7,94,90,84,30.53,30.33,7,2,14,0.12
2013-5-1,68.4,59.5,41.9,47.4,40.1,35.3,92,55,32,30.63,30.52,9,2,13,0.01
2013-5-2,68.2,65.3,48.2,47.0,39.6,38.0,82,41,33,30.61,29.90,4,2,8,0.01
2013-5-3,66.6,54.4,41.7,47.9,41.9,38.0,90,65,43,29.97,29.88,11,3,14,0.00
2013-5-4,66.7,55.7,42.4,46.4,41.7,37.2,84,62,40,29.92,29.75,10,3,11,0.00
2013-5-5,61.5,51.2,41.2,43.1,40.1,36.7,86,67,48,29.83,29.73,10,2,11,0.00
2013-5-6,61.0,53.9,43.3,55.9,48.9,39.1,92,83,77,29.77,29.64,8,3,11,0.05
2013-5-7,62.6,59.5,57.4,60.2,57.4,55.3,94,93,90,29.66,29.52,10,4,14,0.96
2013-5-8,72.3,61.2,55.9,60.0,55.4,52.1,94,83,49,29.59,29.50,4,2,8,0.21
2013-5-9,74.1,62.6,53.1,59.2,55.1,51.4,94,78,53,29.59,29.50,5,1,8,0.01
2013-5-10,83.7,69.4,52.3,62.7,56.5,50.1,93,68,39,29.60,29.45,5,1,10,0.46
2013-5-11,78.1,66.3,62.1,64.8,61.9,59.6,93,87,57,29.50,29.31,5,1,6,0.70
2013-5-12,63.1,57.8,43.5,59.0,39.5,27.7,92,55,27,29.62,29.34,10,2,12,0.01
2013-5-13,59.0,49.2,39.0,37.4,29.0,22.0,79,50,25,29.74,29.61,10,2,13,0.00
2013-5-14,39.0,36.9,36.9,30.0,30.0,29.6,76,76,70,29.75,29.74,0,0,0,0.00
2013-5-15,75.7,41.1,36.9,63.0,33.6,30.0,76,75,63,29.95,29.75,2,0,2,0.00
2013-5-16,80.1,74.1,66.4,61.8,58.8,54.6,74,59,49,30.13,29.95,5,1,7,0.00
2013-5-17,82.4,71.7,55.9,60.4,50.9,42.4,87,51,28,30.34,30.13,5,1,9,0.00
2013-5-18,66.0,62.3,58.3,55.8,54.0,50.0,90,75,59,30.43,30.34,6,2,10,0.00
2013-5-19,72.0,64.2,58.3,64.8,60.8,55.4,94,89,77,30.40,30.29,6,2,8,0.01
2013-5-20,80.4,71.3,64.9,68.1,65.1,62.8,93,82,63,30.32,30.18,4,1,5,0.00
2013-5-21,84.2,74.2,66.0,70.4,67.1,63.5,94,79,63,30.20,30.08,4,1,4,0.00
2013-5-22,87.1,76.6,66.7,72.0,68.1,63.3,94,76,56,30.14,30.04,6,1,6,0.11
2013-5-23,80.2,70.5,64.6,67.4,64.5,61.4,94,82,62,30.12,29.96,5,2,8,0.30
2013-5-24,64.8,56.1,47.3,62.5,46.9,31.5,94,72,52,30.34,29.94,12,3,20,0.04
2013-5-25,64.6,54.4,43.0,38.4,35.0,31.4,69,49,34,30.36,30.27,10,3,16,0.00
2013-5-26,71.2,59.6,48.7,41.1,36.7,32.5,62,44,24,30.42,30.32,11,2,12,0.00
2013-5-27,70.9,60.4,42.8,49.7,43.2,38.0,84,56,31,30.48,30.38,4,1,5,0.00
2013-5-28,79.3,66.1,55.9,66.4,58.5,49.9,90,77,60,30.40,30.26,5,1,5,0.13
2013-5-29,88.5,77.4,64.9,68.7,64.9,61.6,92,68,45,30.33,30.26,4,1,7,0.00
2013-5-30,92.3,80.5,67.5,68.5,65.3,62.0,84,62,40,30.39,30.30,4,1,6,0.00
2013-5-31,89.8,79.7,65.1,68.2,63.9,61.4,88,61,40,30.35,30.23,5,1,6,0.00
2013-6-1,90.0,80.8,69.1,68.9,65.5,62.2,80,61,46,30.25,30.12,4,1,5,0.00
2013-6-2,82.8,74.9,68.0,70.0,66.4,62.8,93,76,59,30.12,30.04,5,2,7,0.81
2013-6-3,80.6,72.3,67.1,69.5,65.2,56.2,95,80,57,30.15,30.02,5,1,10,0.09
2013-6-4,75.0,66.5,55.4,55.4,48.5,43.9,80,54,36,30.33,30.15,6,1,9,0.00
2013-6-5,78.3,66.8,51.3,57.3,53.6,48.4,91,65,43,30.38,30.25,7,2,8,0.00
2013-6-6,72.7,66.1,59.9,62.4,58.0,51.1,93,76,65,30.28,30.06,10,2,10,0.43
2013-6-7,70.7,67.7,64.0,68.9,66.0,61.6,95,94,92,30.06,29.80,5,1,8,0.86
2013-6-8,78.4,70.2,64.0,63.7,61.4,58.2,93,75,55,30.30,29.90,8,1,8,0.01
2013-6-9,79.5,71.3,60.8,68.5,62.8,58.2,92,75,60,30.40,30.30,6,1,8,0.00
2013-6-10,78.3,71.6,67.6,73.9,68.8,63.9,96,91,79,30.31,30.00,4,1,8,1.22
2013-6-11,81.1,73.6,65.8,70.2,65.4,62.6,96,77,58,30.05,29.98,5,1,7,0.01
2013-6-12,86.9,77.6,64.8,70.3,66.5,61.1,89,70,54,30.07,29.99,5,1,7,0.00
2013-6-13,82.6,72.0,67.3,70.3,65.3,56.4,91,80,60,30.02,29.72,4,1,7,1.07
2013-6-14,78.1,68.4,59.4,56.9,54.9,50.8,85,64,43,30.17,29.80,11,2,17,0.02
2013-6-15,81.0,70.0,60.4,60.3,56.4,54.4,82,64,42,30.27,30.17,4,1,4,0.00
2013-6-16,83.5,72.8,61.0,66.0,61.7,55.3,88,70,53,30.23,30.08,4,1,6,0.00
2013-6-17,86.7,78.0,67.8,68.7,65.6,61.3,83,67,50,30.16,30.08,3,1,5,0.00
2013-6-18,75.7,70.9,65.3,70.6,67.0,62.8,93,88,78,30.13,29.99,4,0,8,0.07
2013-6-19,76.3,68.5,61.2,63.6,61.2,57.3,94,79,57,30.36,30.09,6,1,7,0.01
2013-6-20,79.2,69.6,57.4,65.7,59.2,54.5,94,71,51,30.47,30.36,3,1,10,0.00
2013-6-21,81.9,69.6,55.2,59.8,54.0,46.7,90,61,33,30.50,30.43,6,1,8,0.00
2013-6-22,86.2,74.1,58.3,66.7,62.4,54.6,91,69,49,30.45,30.33,4,1,5,0.00
2013-6-23,84.4,74.3,64.8,72.2,67.7,61.6,91,80,63,30.40,30.27,4,1,4,0.24
2013-6-24,91.4,77.3,69.3,73.5,68.5,11.0,94,77,10,30.33,30.23,3,1,6,0.13
2013-6-25,91.6,79.8,67.8,72.4,69.1,63.3,95,72,49,30.24,30.09,12,1,12,0.09
2013-6-26,89.4,76.4,66.2,72.6,68.8,64.1,93,79,54,30.12,30.03,4,1,8,0.15
2013-6-27,82.9,75.4,68.0,73.9,70.3,66.5,95,85,71,30.04,29.83,6,1,9,0.08
2013-6-28,86.5,76.7,69.4,72.2,69.0,63.7,94,78,58,29.84,29.69,5,1,6,0.01
2013-6-29,87.3,77.5,64.9,69.3,64.4,60.8,93,66,42,29.91,29.74,2,1,8,0.00
2013-6-30,84.6,76.3,68.5,73.6,70.5,65.7,93,83,67,30.06,29.91,7,1,11,0.04
2013-7-1,82.9,76.1,70.5,74.1,70.2,20.6,93,84,10,30.19,30.05,100,2,100,0.06
2013-7-2,82.8,76.5,73.4,72.9,71.6,70.0,93,85,69,30.38,30.18,5,2,5,0.07
2013-7-3,86.4,76.3,71.6,75.7,72.6,69.7,96,88,68,30.44,30.37,3,1,4,0.37
2013-7-4,88.7,80.3,73.2,73.7,72.0,69.4,95,77,56,30.46,30.37,5,2,7,0.00
2013-7-5,88.9,81.9,73.8,73.6,71.6,70.0,89,72,56,30.43,30.33,5,2,7,0.00
2013-7-6,92.1,82.1,73.0,74.8,71.6,64.9,92,72,52,30.39,30.27,4,1,6,0.00
2013-7-7,91.0,79.5,69.8,74.3,70.5,67.1,93,75,55,30.32,30.20,6,1,7,0.50
2013-7-8,85.1,75.5,69.3,73.0,68.9,66.0,96,81,54,30.31,30.24,2,0,3,0.05
2013-7-9,83.5,77.4,70.7,73.7,71.0,67.7,92,81,67,30.31,30.20,2,0,4,0.00
2013-7-10,87.4,79.4,75.0,75.3,72.9,68.8,93,81,64,30.23,30.06,5,1,5,0.00
2013-7-11,75.0,73.4,72.3,70.1,69.8,69.4,92,88,83,30.09,30.05,4,2,5,0.05
2013-7-12,74.5,69.7,66.6,70.7,66.9,64.5,94,91,80,30.23,30.11,5,2,9,0.69
2013-7-13,84.4,76.0,69.1,73.8,70.2,66.9,96,83,67,30.49,30.23,4,1,7,0.01
2013-7-14,90.3,82.5,72.3,75.0,72.5,69.4,95,73,52,30.54,30.47,4,1,4,0.00
2013-7-15,86.4,86.4,86.4,71.9,71.9,71.9,62,62,62,30.48,30.48,2,2,2,0.00
2013-7-16,86.4,85.3,75.6,71.9,71.8,70.4,84,64,62,30.48,29.93,2,2,2,0.00
2013-7-17,94.3,84.1,72.9,75.8,71.3,67.9,89,68,44,29.95,29.83,4,1,6,0.00
2013-7-18,96.1,85.6,74.1,80.0,75.1,71.1,91,72,52,29.86,29.74,4,1,7,0.00
2013-7-19,95.9,84.5,76.6,78.6,75.1,70.2,92,75,53,29.75,29.61,2,0,9,0.04
2013-7-20,92.5,81.2,72.0,75.8,71.9,66.6,89,75,53,29.63,29.53,6,1,10,0.09
2013-7-21,90.0,79.1,70.2,73.4,70.9,67.4,93,77,52,29.68,29.61,3,0,4,0.02
2013-7-22,88.7,78.7,71.2,76.9,71.8,67.9,96,80,58,29.66,29.50,6,1,6,0.34
2013-7-23,84.9,77.2,70.7,74.5,69.7,66.9,96,79,58,29.50,29.38,4,1,12,0.06
2013-7-24,82.9,75.9,69.3,68.7,64.9,57.9,86,69,56,29.65,29.42,6,1,7,0.00
2013-7-25,78.1,68.8,59.5,60.6,56.6,51.6,87,66,50,29.77,29.65,7,2,9,0.00
2013-7-26,81.5,71.3,59.9,65.3,60.5,57.6,93,71,46,29.83,29.75,4,0,6,0.00
2013-7-27,83.8,71.5,61.5,69.1,65.3,59.1,94,82,59,29.79,29.66,4,1,6,0.39
2013-7-28,82.6,74.1,68.2,71.1,68.5,63.7,95,83,58,29.75,29.62,4,0,8,0.13
2013-7-29,80.1,70.5,60.6,63.4,59.0,55.4,93,70,44,29.89,29.72,4,1,6,0.05
2013-7-30,81.9,70.6,57.0,63.0,59.1,54.4,92,70,46,29.96,29.88,4,1,6,0.00
2013-7-31,80.2,72.3,63.0,68.5,64.1,60.2,93,77,59,29.89,29.75,4,1,4,0.01
2013-8-1,83.1,73.3,67.1,71.5,68.5,65.3,96,86,64,29.75,29.55,4,1,4,0.17
2013-8-2,85.1,75.7,65.8,67.7,65.1,62.5,91,71,51,29.70,29.59,3,0,4,0.00
2013-8-3,76.5,68.9,64.9,67.1,64.9,62.9,94,87,70,29.71,29.65,2,0,4,0.20
2013-8-4,80.1,71.0,60.6,63.9,59.3,54.8,95,69,44,29.76,29.64,6,1,10,0.01
2013-8-5,78.8,68.1,55.2,59.9,56.3,52.3,91,68,42,29.83,29.75,4,1,6,0.00
2013-8-6,73.2,67.4,63.0,67.9,64.2,59.1,94,89,82,29.81,29.74,6,1,6,0.28
2013-8-7,83.5,74.1,67.6,72.7,68.9,65.6,94,84,67,29.81,29.73,4,1,8,0.17
2013-8-8,84.9,76.5,69.6,74.2,71.7,67.3,97,86,67,29.78,29.71,4,1,7,0.40
2013-8-9,88.0,80.0,74.8,77.8,73.8,70.9,96,82,64,29.70,29.60,3,1,4,0.08
2013-8-10,77.9,77.9,77.9,70.9,70.9,70.9,79,79,79,29.66,29.66,1,1,1,0.08
2013-8-11,77.9,77.1,70.2,70.9,70.3,66.3,88,80,79,29.92,29.66,2,1,2,0.08
2013-8-12,86.4,76.9,66.9,73.6,69.0,64.9,95,78,57,29.91,29.78,4,1,7,0.00
2013-8-13,85.3,76.2,70.3,73.4,69.8,65.3,93,81,58,29.78,29.61,5,1,5,0.08
2013-8-14,70.3,65.6,57.2,64.6,54.5,47.6,82,68,55,29.85,29.69,6,2,6,0.01
2013-8-15,75.6,65.0,51.4,57.1,51.6,48.1,91,65,39,30.06,29.96,4,1,4,0.00
2013-8-16,77.4,65.9,52.3,61.8,55.2,50.1,93,71,48,30.06,30.00,3,1,3,0.00
2013-8-17,78.6,67.8,53.4,62.5,57.0,51.4,94,71,48,30.13,30.07,4,1,4,0.00
2013-8-18,72.7,67.2,63.9,63.7,61.5,60.0,93,82,68,30.11,30.03,4,0,4,0.04
2013-8-19,75.9,67.9,59.7,66.8,62.9,57.9,95,84,71,30.05,29.94,4,0,4,0.00
2013-8-20,86.2,74.7,61.0,71.7,65.8,59.6,96,76,52,30.04,29.96,4,1,5,0.00
2013-8-21,88.0,76.9,65.3,74.0,69.1,63.6,94,78,56,30.07,29.94,3,1,5,0.00
2013-8-22,85.6,77.9,69.3,71.8,68.7,66.7,93,74,58,29.96,29.80,4,1,6,0.00
2013-8-23,75.2,69.6,59.9,69.2,64.7,57.9,93,84,74,29.99,29.81,4,0,8,0.04
2013-8-24,81.1,68.9,56.5,64.3,58.9,55.1,96,73,43,30.21,29.99,4,1,8,0.00
2013-8-25,80.6,68.8,54.9,66.0,57.6,52.9,94,70,44,30.28,30.14,4,1,6,0.00
2013-8-26,86.7,73.7,60.4,64.4,60.8,54.8,85,66,47,30.16,29.87,3,1,5,0.00
2013-8-27,88.3,79.4,72.3,71.9,68.3,63.5,86,69,56,29.87,29.75,5,1,8,0.00
2013-8-28,79.0,74.2,70.3,73.3,70.1,68.3,96,87,76,29.79,29.70,2,0,3,0.37
2013-8-29,83.5,74.8,69.4,72.0,69.6,67.0,97,85,63,29.90,29.71,6,1,7,0.00
2013-8-30,86.0,77.0,69.6,71.9,69.0,67.0,94,77,55,29.91,29.76,4,1,5,0.00
2013-8-31,88.9,79.7,69.6,73.1,70.3,66.3,90,74,55,29.78,29.67,5,1,5,0.00
2013-9-1,90.0,79.4,67.6,74.5,70.3,65.6,94,75,54,29.72,29.63,4,1,4,0.00
2013-9-2,89.4,79.5,69.8,72.8,69.9,66.2,91,73,53,29.68,29.59,5,1,6,0.00
2013-9-3,83.7,76.1,65.7,71.2,63.1,54.8,90,66,44,29.83,29.60,10,1,10,0.00
2013-9-4,81.7,69.3,56.3,58.6,54.4,50.9,86,62,35,29.95,29.83,4,1,6,0.00
2013-9-5,81.1,70.1,57.2,63.2,57.2,48.7,92,66,46,30.00,29.88,9,1,9,0.00
2013-9-6,74.7,63.1,52.3,50.9,48.9,46.4,86,62,39,30.13,30.00,7,1,7,0.00
2013-9-7,80.2,65.7,49.3,61.4,55.3,46.8,91,72,48,30.02,29.81,4,1,4,0.00
2013-9-8,84.2,73.4,63.1,67.1,63.5,57.0,90,73,55,29.93,29.75,4,1,9,0.00
2013-9-9,79.0,68.7,57.9,66.9,57.3,48.6,82,67,57,30.07,29.93,5,1,5,0.00
2013-9-10,91.2,79.9,71.8,73.4,70.7,66.9,89,75,54,30.05,29.95,3,1,4,0.00
2013-9-11,76.6,74.2,72.9,71.5,70.6,69.8,91,88,85,30.02,29.99,0,0,1,0.00
2013-9-12,88.2,76.1,68.7,73.7,69.7,66.2,96,82,61,29.87,29.61,4,1,6,0.48
2013-9-13,76.8,68.4,59.0,67.9,57.9,49.6,96,72,42,29.80,29.57,7,1,9,0.15
2013-9-14,68.7,58.8,48.9,49.7,46.5,44.1,87,65,45,30.03,29.80,6,1,9,0.00
2013-9-15,75.0,60.4,43.5,56.3,50.1,41.5,93,72,47,30.09,29.95,3,1,4,0.00
2013-9-16,70.7,62.7,55.0,60.7,56.4,52.2,91,81,59,30.11,29.90,6,1,8,0.04
2013-9-17,66.6,56.7,46.0,53.1,45.1,39.5,90,68,38,30.29,30.11,7,2,11,0.00
2013-9-18,69.4,55.3,40.5,52.8,45.7,38.3,93,73,40,30.21,30.05,6,1,6,0.00
2013-9-19,76.6,61.7,44.8,59.8,53.1,42.9,93,75,53,30.07,29.94,3,0,4,0.00
2013-9-20,79.0,66.0,51.3,61.8,57.3,49.3,94,75,54,29.95,29.83,5,1,8,0.00
2013-9-21,74.5,65.9,60.6,65.6,60.4,56.3,96,83,63,29.85,29.55,5,1,6,0.43
2013-9-22,70.9,63.0,53.1,61.0,54.5,47.1,97,76,52,29.82,29.59,5,1,8,0.01
2013-9-23,66.2,55.8,46.6,47.2,45.7,43.3,89,70,49,29.95,29.82,5,1,11,0.00
2013-9-24,71.2,55.6,41.0,51.1,45.9,39.1,93,73,44,29.97,29.81,4,1,7,0.00
2013-9-25,73.8,58.1,43.7,52.1,46.9,41.8,94,71,36,29.85,29.75,4,1,4,0.00
2013-9-26,74.1,60.7,50.5,57.1,51.8,48.0,93,75,48,29.94,29.79,6,1,8,0.00
2013-9-27,71.1,60.3,51.3,60.7,55.0,49.0,93,84,62,30.11,29.93,4,1,6,0.00
2013-9-28,68.7,59.5,51.4,57.6,53.1,48.9,95,81,59,30.18,30.08,4,1,7,0.00
2013-9-29,70.7,58.0,46.0,57.8,51.9,44.4,95,81,60,30.08,29.93,4,1,6,0.00
2013-9-30,74.3,59.9,46.2,58.0,51.9,44.6,95,77,50,29.96,29.85,3,0,4,0.00
2013-10-1,81.0,65.9,51.4,62.1,56.8,49.4,94,75,47,29.93,29.83,4,1,8,0.00
2013-10-2,84.0,68.9,55.2,63.3,59.2,52.9,93,74,44,29.95,29.87,5,1,9,0.00
2013-10-3,81.5,68.8,57.0,66.7,61.8,55.3,94,80,56,29.99,29.91,4,0,4,0.00
2013-10-4,85.5,70.3,57.7,68.7,63.0,56.3,95,80,50,29.96,29.88,4,0,4,0.00
2013-10-5,86.5,73.6,62.6,70.2,65.1,60.9,95,77,52,29.96,29.88,3,1,4,0.00
2013-10-6,86.4,74.6,62.4,70.1,65.3,60.7,95,75,49,29.90,29.79,5,1,8,0.00
2013-10-7,72.9,65.5,53.4,69.7,61.1,46.7,95,86,72,29.92,29.65,4,2,11,0.53
2013-10-8,66.7,54.9,44.2,51.0,46.9,42.3,94,76,50,30.15,29.92,5,1,9,0.00
2013-10-9,60.4,54.6,50.2,50.3,48.4,45.4,91,80,68,30.19,30.06,7,2,11,0.13
2013-10-10,57.6,55.0,52.0,56.4,53.5,49.7,97,94,89,30.07,29.85,9,2,10,0.98
2013-10-11,61.7,59.3,55.6,61.1,58.5,54.6,98,97,96,29.87,29.80,8,2,10,1.64
2013-10-12,66.6,62.0,58.7,61.6,58.9,55.4,99,90,75,30.17,29.85,7,2,8,0.31
2013-10-13,62.4,58.3,54.7,57.5,56.0,52.5,97,92,80,30.33,30.17,4,0,6,0.17
2013-10-14,68.0,57.8,50.1,54.8,52.1,49.1,97,83,55,30.35,30.23,2,0,5,0.00
2013-10-15,69.8,56.2,46.7,55.2,48.6,42.5,98,79,38,30.25,30.10,2,0,7,0.00
2013-10-16,69.5,62.1,55.3,61.9,58.4,51.9,96,88,74,30.10,29.92,2,0,4,0.00
2013-10-17,74.4,64.9,56.9,63.8,60.3,54.4,98,86,65,29.92,29.72,4,0,6,0.10
2013-10-18,64.0,54.6,43.3,53.7,44.0,40.1,96,69,46,30.02,29.82,5,0,10,0.00
2013-10-19,63.8,52.4,40.3,56.8,47.6,39.5,97,85,57,30.01,29.79,6,0,7,0.00
2013-10-20,60.5,50.2,39.0,45.1,37.8,34.9,95,64,40,30.11,29.86,8,0,11,0.00
2013-10-21,64.3,49.4,34.0,45.8,39.1,33.2,98,72,37,30.16,29.97,4,0,7,0.00
2013-10-22,60.9,50.5,41.5,50.5,44.5,39.7,97,81,60,29.98,29.83,2,0,5,0.00
2013-10-23,54.9,46.8,41.5,41.2,36.6,32.3,86,69,44,29.91,29.67,5,0,7,0.00
2013-10-24,48.5,42.1,35.2,35.3,30.7,25.3,89,65,41,30.14,29.91,7,1,13,0.00
2013-10-25,52.8,42.0,34.5,33.7,30.7,29.2,82,65,43,30.33,30.14,10,1,12,0.00
2013-10-26,54.1,42.0,26.9,32.0,28.9,25.7,96,64,37,30.32,29.95,6,0,9,0.00
2013-10-27,58.0,46.1,34.6,37.0,33.8,31.1,93,64,40,30.16,29.97,4,0,9,0.00
2013-10-28,62.0,43.3,29.8,42.2,35.4,28.8,97,77,39,30.30,30.16,2,0,4,0.00
2013-10-29,61.4,45.8,33.4,43.9,38.7,32.4,97,79,46,30.40,30.30,2,0,5,0.00
2013-10-30,66.8,53.6,42.8,55.3,49.4,40.6,97,87,62,30.34,30.15,2,0,4,0.02
2013-10-31,66.6,60.0,52.9,59.6,56.4,51.9,98,88,76,30.19,29.78,5,0,8,0.02
2013-11-1,71.1,64.2,52.5,63.0,58.4,51.4,97,82,60,29.78,29.58,8,0,11,0.16
2013-11-2,64.8,54.8,47.7,52.8,44.6,37.7,98,71,44,29.88,29.64,5,0,9,0.00
2013-11-3,54.6,46.2,35.5,41.8,32.1,20.1,88,60,28,30.47,29.88,4,0,10,0.00
2013-11-4,44.8,35.6,26.5,26.8,22.6,19.4,85,61,38,30.65,30.50,4,0,9,0.00
2013-11-5,56.3,45.6,30.9,46.3,38.0,26.6,86,75,63,30.63,30.47,3,0,4,0.00
2013-11-6,66.0,55.3,40.6,51.9,48.3,39.5,97,78,57,30.47,30.06,4,0,7,0.00
2013-11-7,59.1,52.8,41.4,54.3,44.9,23.9,94,76,46,30.08,29.88,5,1,15,0.06
2013-11-8,48.1,40.2,30.4,29.2,25.2,22.0,84,56,36,30.33,30.08,8,1,14,0.00
2013-11-9,52.6,40.6,25.6,29.2,26.8,23.4,92,61,38,30.36,30.04,6,0,9,0.00
2013-11-10,59.5,46.1,33.7,34.9,29.2,26.2,83,54,31,30.23,29.97,7,1,18,0.00
2013-11-11,56.0,46.3,34.4,31.6,29.0,26.8,78,52,33,30.31,30.01,3,0,6,0.00
2013-11-12,48.3,38.3,28.8,37.7,22.5,12.8,71,53,41,30.40,29.98,5,0,13,0.00
2013-11-13,40.1,32.7,26.5,20.9,18.6,16.7,69,56,42,30.48,30.39,4,0,10,0.00
2013-11-14,55.7,37.0,23.9,23.6,18.3,10.0,78,52,18,30.40,30.23,3,0,7,0.00
2013-11-15,59.4,41.8,24.2,41.2,26.7,21.2,89,60,24,30.29,30.20,3,0,3,0.05
2013-11-16,52.2,47.6,41.9,48.4,45.6,40.8,97,93,84,30.33,30.24,2,0,5,0.12
2013-11-17,61.3,56.4,49.2,58.1,54.0,48.4,98,92,83,30.24,29.74,6,0,9,0.02
2013-11-18,65.5,57.5,47.3,60.0,37.3,24.0,94,52,22,29.93,29.69,8,1,14,0.14
2013-11-19,47.1,41.3,31.8,27.6,25.5,23.5,74,54,44,30.37,29.93,7,1,10,0.00
2013-11-20,44.0,33.1,25.2,24.1,22.2,17.8,85,66,35,30.58,30.37,4,0,8,0.00
2013-11-21,48.2,38.0,23.9,38.5,30.9,21.0,91,76,62,30.59,30.40,1,0,3,0.00
2013-11-22,59.7,52.2,43.9,52.1,46.0,38.3,94,80,68,30.40,30.01,6,0,7,0.02
2013-11-23,54.0,41.2,28.8,47.3,26.1,9.6,78,56,40,30.20,30.03,6,1,12,0.00
2013-11-24,29.8,24.9,20.7,10.6,7.5,4.0,60,47,33,30.53,30.19,10,1,22,0.00
2013-11-25,35.6,26.7,16.7,12.1,8.7,5.0,71,47,29,30.59,30.36,3,0,6,0.00
2013-11-26,43.0,34.5,32.0,42.2,26.5,10.9,97,76,39,30.35,29.62,7,0,11,1.67
2013-11-27,38.5,35.5,27.3,36.7,30.7,14.8,97,83,57,30.03,29.52,11,1,19,0.59
2013-11-28,35.7,28.6,24.6,22.5,15.6,12.4,78,59,40,30.49,30.03,8,1,13,0.00
2013-11-29,40.2,29.0,19.1,22.2,19.4,16.6,91,69,42,30.74,30.47,5,0,10,0.00
2013-11-30,35.9,27.6,17.6,23.6,18.8,14.9,89,71,47,30.74,30.39,3,0,5,0.00
2013-12-1,45.8,33.8,20.2,31.8,25.9,18.5,94,74,50,30.39,30.03,2,0,3,0.00
2013-12-2,48.3,40.9,36.8,36.5,34.0,30.2,85,77,58,30.03,29.88,2,0,4,0.00
2013-12-3,55.2,42.4,33.3,38.5,35.2,31.0,92,77,51,30.00,29.89,3,0,4,0.00
2013-12-4,54.8,44.2,31.7,47.8,40.2,30.2,96,86,72,30.10,30.00,2,0,4,0.00
2013-12-5,68.3,58.2,49.2,60.4,54.4,47.0,97,88,70,30.08,29.92,5,0,9,0.00
2013-12-6,63.4,49.0,36.3,62.2,47.5,35.0,97,94,90,30.18,29.87,5,0,10,1.01
2013-12-7,40.5,34.8,27.2,35.1,29.0,20.6,96,80,62,30.56,30.14,5,0,8,0.20
2013-12-8,30.2,26.7,24.8,28.9,22.5,18.3,96,84,70,30.60,30.31,2,0,5,0.05
2013-12-9,34.2,32.1,30.0,32.8,31.0,28.7,97,96,93,30.32,30.04,1,0,2,0.04
2013-12-10,35.7,31.7,28.3,32.5,27.6,16.7,98,85,60,30.23,30.00,4,0,6,0.04
2013-12-11,28.3,26.7,24.7,18.0,17.1,16.4,74,67,61,30.31,30.22,1,0,3,0.00
2013-12-12,29.3,23.8,16.3,20.9,12.0,5.4,91,62,39,30.45,30.27,6,0,9,0.00
2013-12-13,39.8,27.5,16.2,23.8,16.1,10.6,83,64,36,30.33,30.24,5,0,8,0.01
2013-12-14,37.1,32.6,28.2,33.1,28.2,23.1,97,84,66,30.34,29.72,5,0,9,0.59
2013-12-15,42.4,34.5,29.0,36.2,28.4,21.4,96,79,60,29.95,29.63,8,1,14,0.17
2013-12-16,34.7,32.0,29.0,25.0,22.6,18.9,76,68,62,30.20,29.94,4,0,8,0.00
2013-12-17,35.6,32.2,29.6,30.1,27.5,24.3,92,83,76,30.18,29.95,3,0,5,0.00
2013-12-18,37.9,30.7,22.9,28.2,22.3,18.4,94,72,52,30.23,30.00,4,0,9,0.00
2013-12-19,57.4,36.5,20.6,30.4,25.1,18.6,93,67,34,30.22,30.09,3,0,7,0.00
2013-12-20,57.0,48.2,37.3,40.3,32.4,27.5,69,55,40,30.12,30.00,3,0,7,0.00
2013-12-21,70.5,59.6,48.8,59.9,49.4,39.9,82,69,56,30.02,29.89,7,1,10,0.00
2013-12-22,70.2,63.7,60.4,63.3,59.7,57.3,95,87,76,30.00,29.81,8,1,16,0.35
2013-12-23,62.0,52.6,35.7,60.0,48.4,27.4,97,86,67,30.24,29.91,5,0,9,0.87
2013-12-24,38.1,30.7,20.3,28.0,19.2,7.0,84,63,44,30.48,30.20,9,1,13,0.00
2013-12-25,30.3,22.5,15.3,16.7,11.2,8.5,82,62,42,30.59,30.40,3,0,4,0.00
2013-12-26,42.3,29.5,17.6,24.5,19.7,15.4,94,69,40,30.40,30.24,4,0,8,0.00
2013-12-27,48.7,33.7,21.1,24.3,19.6,15.7,89,60,27,30.43,30.32,4,0,8,0.00
2013-12-28,57.2,39.6,23.8,28.6,24.3,20.4,88,59,27,30.34,30.12,5,0,7,0.00
2013-12-29,45.6,42.3,37.3,44.4,38.1,26.0,97,86,49,30.12,29.54,5,0,7,1.09
2013-12-30,44.3,38.0,30.1,37.6,30.3,19.8,95,74,62,30.19,29.82,4,0,10,0.00
2013-12-31,42.4,31.4,22.6,27.9,19.9,15.9,81,63,45,30.34,30.11,9,1,13,0.00
2014-1-1,45.4,31.5,21.4,26.9,22.9,17.6,90,72,45,30.43,30.15,3,0,6,0.00
2014-1-2,35.5,30.5,26.0,31.4,28.5,23.7,96,92,84,30.14,29.64,4,0,5,0.00